Probability
3 0 0 0 0 0 0 0 0 0 0 0 0 0 0 0 0 0 0 42 90 87 100 100 100 100 100 100 100 100 100 100 100 97 81 48 16 3 0 0 0 0 0
0 0 0 0 0 0 0 0 0 0 0 0 0 0 0 0 0 0 0 0 94 100 100 100 100 100 100 100 100 97 94 94 100 100 84 58 29 3 0 0 0 0 0
0 0 0 0 0 0 0 0 0 0 0 0 0 0 0 0 0 0 0 0 0 74 100 100 100 100 97 97 97 97 97 90 94 94 84 45 13 6 3 0 0 0 0
0 0 6 3 3 0 0 0 0 0 0 0 0 0 0 0 0 0 0 0 0 0 13 97 100 100 100 97 97 97 97 94 94 81 74 58 29 10 3 0 0 0 0
3 6 3 3 3 3 0 0 0 0 0 0 0 0 0 0 0 0 0 0 0 0 0 0 90 97 100 97 97 97 97 94 90 81 65 65 52 13 3 0 0 0 0
23 10 10 6 6 6 6 0 0 0 0 0 0 0 0 0 0 0 0 0 0 0 0 0 0 10 90 97 97 94 94 87 87 87 71 74 71 26 0 0 0 0 0
45 26 23 13 10 10 3 3 0 0 0 0 0 0 0 0 0 0 0 0 0 0 0 0 0 0 0 10 45 71 77 77 84 87 77 74 74 35 6 0 0 0 0
42 35 19 13 13 0 0 0 0 0 0 0 0 0 0 0 0 0 0 0 0 0 0 0 0 0 0 0 0 0 32 61 74 77 77 71 58 19 10 3 0 0 0
29 26 13 6 6 0 0 0 0 0 0 0 0 0 0 0 0 0 0 0 0 0 0 0 0 0 0 0 0 0 0 6 39 39 55 58 32 3 3 3 0 0 0
35 26 19 0 0 0 0 0 0 0 0 0 0 0 0 0 0 0 0 0 0 0 0 0 0 0 0 0 0 0 0 0 0 3 16 26 16 3 0 0 0 0 0
19 13 13 10 0 0 0 0 0 0 0 0 0 0 0 0 0 0 0 0 0 0 0 0 0 0 0 0 0 0 0 0 0 0 0 6 0 3 0 0 0 0 0
6 6 3 3 0 0 0 0 0 0 0 0 0 0 0 0 0 0 0 0 0 0 0 0 0 0 0 0 0 0 0 0 0 0 0 0 0 3 0 0 0 0 0
0 0 0 0 0 0 0 0 0 0 0 0 0 0 0 0 0 0 0 0 0 0 0 0 0 0 0 0 0 0 0 0 0 0 0 0 0 0 0 0 0 0 0
0 0 0 0 0 0 0 0 0 0 0 0 0 0 0 0 0 0 0 0 0 0 0 0 0 0 0 0 0 0 0 0 0 0 0 0 0 0 0 0 0 0 0
0 0 0 0 0 0 0 0 0 0 0 0 0 0 0 0 0 0 0 0 0 0 0 0 0 0 0 0 0 0 0 0 0 0 0 0 0 0 0 0 0 0 0
0 0 0 0 0 0 0 0 0 0 0 0 0 0 0 0 0 0 0 0 0 0 0 0 0 0 0 0 0 0 0 0 0 0 0 0 0 0 0 0 0 0 0
0 0 0 0 0 0 0 0 0 0 0 0 0 0 0 0 0 0 0 0 0 0 0 0 0 0 0 0 0 0 0 0 0 0 0 0 0 0 0 0 0 0 0
0 0 0 0 0 0 0 0 0 0 0 0 0 0 0 0 0 0 0 0 0 0 0 0 0 0 0 0 0 0 0 0 0 0 0 0 0 0 0 0 0 0 0
0 0 0 0 0 0 0 0 0 0 0 0 0 0 0 0 0 0 0 0 0 0 0 0 0 0 0 0 0 0 0 0 0 0 0 0 0 0 0 0 0 0 0
0 0 0 0 0 0 0 0 0 0 0 0 0 0 0 0 0 0 0 0 0 0 0 0 0 0 0 0 0 0 0 0 0 0 0 0 0 0 0 0 0 0 0
0 0 0 0 0 0 0 0 0 0 0 0 0 0 0 0 0 0 0 0 0 0 0 0 0 0 0 0 0 0 0 0 0 0 0 0 0 0 0 0 0 0 0
0 0 0 0 0 0 0 0 0 0 0 0 0 0 0 0 0 0 0 0 0 0 0 0 0 0 0 0 0 0 0 0 0 0 0 0 0 0 0 0 0 0 0
0 0 0 0 0 0 0 0 0 0 0 0 0 0 0 0 0 0 0 0 0 0 0 0 0 0 0 0 0 0 0 0 0 0 0 0 0 0 0 0 0 0 0
0 0 0 0 0 0 0 0 0 0 0 0 0 0 0 0 0 0 0 0 0 0 0 0 0 0 0 0 0 0 0 0 0 0 0 0 0 0 0 0 0 0 0
0 0 0 0 0 0 0 0 0 0 0 0 0 0 0 0 0 0 0 0 0 0 0 0 0 0 0 0 0 0 0 0 0 0 0 0 0 0 0 0 0 0 0
0 0 0 0 0 0 0 0 0 0 0 0 0 0 0 0 0 0 0 0 0 0 0 0 0 0 0 0 0 0 0 0 0 0 0 0 0 0 0 0 0 0 0
Height
5915 5914 5912 5911 5909 5907 5905 5903 5900 5898 5897 5895 5894 5893 5892 5891 5889 5888 5886 5885 5884 5882 5881 5879 5878 5877 5875 5874 5872 5871 5869 5868 5867 5866 5865 5864 5863 5862 5862 5862 5861 5862 5862
5912 5911 5910 5908 5906 5903 5901 5899 5896 5894 5892 5891 5889 5888 5887 5886 5885 5884 5882 5881 5880 5878 5877 5875 5874 5873 5872 5870 5869 5868 5867 5865 5864 5862 5861 5860 5859 5859 5858 5858 5857 5857 5857
5907 5906 5904 5903 5901 5899 5897 5895 5892 5890 5888 5886 5884 5883 5881 5880 5880 5879 5878 5877 5875 5874 5873 5871 5870 5869 5868 5867 5866 5865 5863 5862 5861 5859 5857 5856 5855 5854 5854 5853 5853 5853 5853
5900 5899 5898 5897 5895 5894 5892 5890 5888 5885 5883 5881 5878 5877 5875 5875 5874 5873 5872 5871 5870 5869 5868 5867 5866 5865 5864 5863 5862 5860 5859 5858 5857 5855 5854 5852 5851 5850 5849 5849 5849 5849 5848
5893 5892 5892 5890 5889 5887 5886 5884 5882 5880 5878 5875 5873 5871 5870 5868 5867 5867 5866 5865 5865 5864 5863 5862 5861 5860 5859 5858 5857 5856 5854 5853 5852 5851 5850 5848 5846 5845 5844 5844 5843 5843 5843
5887 5886 5885 5884 5882 5881 5879 5878 5876 5874 5872 5870 5868 5866 5864 5862 5861 5860 5859 5859 5858 5858 5857 5856 5856 5855 5854 5853 5852 5851 5850 5849 5848 5846 5845 5844 5842 5840 5839 5838 5838 5838 5838
5880 5879 5878 5877 5875 5874 5872 5871 5869 5867 5865 5863 5862 5860 5858 5855 5854 5853 5853 5852 5852 5851 5851 5850 5850 5849 5848 5848 5847 5846 5845 5844 5842 5841 5840 5839 5837 5835 5834 5833 5832 5832 5832
5872 5871 5870 5869 5868 5866 5865 5863 5861 5859 5857 5856 5854 5853 5851 5849 5847 5846 5845 5845 5844 5844 5844 5844 5843 5843 5842 5842 5841 5840 5839 5838 5837 5836 5835 5833 5832 5830 5828 5827 5827 5827 5827
5864 5863 5862 5861 5859 5858 5856 5854 5852 5850 5849 5847 5845 5844 5843 5842 5840 5839 5838 5837 5837 5837 5836 5836 5836 5836 5836 5835 5835 5834 5833 5832 5831 5830 5828 5827 5826 5825 5823 5822 5821 5821 5821
5855 5854 5853 5852 5851 5849 5847 5845 5842 5840 5839 5837 5835 5834 5833 5832 5832 5832 5830 5830 5830 5830 5829 5829 5829 5829 5828 5828 5828 5827 5826 5825 5824 5823 5822 5821 5820 5819 5818 5817 5816 5816 5816
5846 5845 5843 5842 5841 5839 5837 5835 5832 5830 5828 5827 5826 5824 5824 5823 5822 5823 5823 5822 5822 5822 5822 5822 5822 5822 5821 5821 5821 5820 5819 5818 5818 5817 5816 5815 5815 5813 5812 5811 5810 5810 5810
5837 5836 5834 5832 5830 5828 5826 5824 5822 5820 5818 5817 5816 5815 5814 5814 5813 5813 5814 5813 5813 5813 5814 5814 5814 5814 5814 5813 5813 5813 5812 5812 5811 5810 5810 5809 5809 5808 5807 5806 5805 5805 5805
5828 5826 5824 5822 5820 5818 5816 5814 5812 5810 5808 5807 5806 5805 5804 5804 5804 5804 5804 5804 5804 5804 5804 5805 5805 5805 5806 5806 5806 5805 5805 5805 5804 5804 5803 5803 5803 5802 5801 5800 5799 5799 5799
5818 5816 5814 5812 5810 5807 5806 5804 5802 5801 5799 5797 5796 5796 5795 5795 5795 5795 5795 5795 5794 5795 5795 5796 5796 5796 5797 5798 5798 5798 5798 5798 5797 5797 5797 5797 5797 5796 5795 5794 5794 5793 5793
5807 5805 5803 5801 5800 5798 5796 5795 5793 5792 5790 5789 5788 5787 5786 5786 5786 5786 5785 5785 5785 5785 5786 5786 5787 5788 5789 5789 5790 5790 5790 5791 5791 5791 5791 5791 5791 5790 5789 5789 5788 5788 5788
5796 5795 5793 5792 5791 5789 5788 5787 5785 5784 5783 5781 5780 5778 5778 5777 5777 5776 5776 5776 5776 5776 5777 5777 5779 5780 5780 5781 5782 5783 5784 5784 5784 5784 5784 5785 5785 5784 5784 5783 5783 5783 5783
5787 5786 5785 5784 5782 5781 5780 5779 5778 5777 5775 5774 5772 5771 5770 5769 5768 5768 5767 5767 5768 5768 5769 5769 5771 5772 5773 5774 5775 5776 5777 5777 5777 5778 5778 5778 5778 5778 5778 5778 5777 5778 5778
5778 5777 5776 5776 5774 5774 5773 5772 5771 5770 5769 5767 5766 5765 5763 5762 5761 5760 5760 5759 5760 5760 5762 5762 5763 5765 5766 5767 5768 5769 5770 5771 5771 5771 5771 5772 5772 5772 5772 5772 5772 5773 5773
5769 5769 5768 5767 5767 5766 5765 5765 5764 5763 5762 5761 5760 5759 5758 5756 5755 5755 5754 5754 5754 5754 5755 5756 5757 5758 5760 5761 5761 5762 5763 5764 5764 5765 5765 5766 5766 5766 5767 5767 5767 5768 5769
5761 5760 5760 5759 5759 5758 5757 5757 5756 5755 5755 5754 5753 5752 5751 5750 5749 5749 5749 5748 5748 5749 5749 5750 5751 5751 5753 5754 5755 5756 5756 5757 5758 5759 5759 5760 5760 5761 5761 5761 5762 5763 5764
5753 5752 5752 5751 5750 5750 5749 5748 5747 5746 5746 5745 5744 5744 5743 5743 5742 5742 5742 5742 5742 5742 5743 5744 5744 5745 5746 5747 5748 5749 5750 5750 5751 5752 5753 5754 5754 5755 5755 5756 5757 5759 5760
5744 5744 5743 5742 5742 5741 5740 5739 5738 5737 5736 5735 5734 5734 5733 5733 5733 5733 5733 5733 5734 5734 5735 5736 5737 5737 5738 5739 5741 5741 5742 5743 5744 5746 5746 5747 5748 5749 5750 5751 5752 5753 5754
5736 5735 5734 5733 5732 5731 5730 5729 5728 5727 5726 5724 5723 5723 5722 5722 5722 5722 5722 5723 5724 5725 5726 5727 5728 5729 5730 5731 5732 5734 5735 5736 5737 5738 5738 5740 5741 5742 5743 5744 5745 5746 5747
5728 5727 5726 5725 5723 5722 5721 5720 5718 5717 5715 5714 5712 5711 5711 5710 5710 5710 5711 5711 5712 5713 5715 5716 5717 5718 5720 5722 5724 5726 5727 5727 5728 5729 5731 5732 5734 5735 5736 5737 5738 5739 5740
5720 5719 5718 5716 5715 5713 5712 5710 5709 5707 5705 5704 5702 5701 5700 5699 5699 5699 5699 5699 5700 5701 5702 5704 5705 5707 5709 5711 5713 5716 5717 5718 5719 5721 5722 5724 5725 5727 5728 5729 5730 5731 5732
5713 5711 5710 5708 5706 5704 5703 5701 5700 5698 5696 5695 5693 5691 5690 5689 5688 5687 5688 5688 5688 5689 5690 5691 5693 5695 5697 5699 5702 5704 5707 5708 5710 5712 5713 5715 5716 5718 5720 5721 5722 5723 5724
Wind_Speed
13 14 15 16 19 21 22 23 22 20 19 20 21 22 23 24 23 21 20 19 19 18 18 18 16 13 12 12 11 11 11 12 12 13 13 13 14 14 14 15 17 18 20
17 16 17 19 21 22 24 24 24 22 20 21 22 23 24 24 24 23 22 21 21 20 19 18 16 14 13 12 12 12 12 12 13 13 14 14 15 15 16 16 17 18 19
21 21 21 22 23 24 25 25 25 23 23 23 23 24 25 25 25 24 24 23 22 22 20 18 16 15 14 14 13 13 13 13 13 14 15 15 16 16 16 17 18 19 19
26 25 25 26 27 27 27 28 28 26 27 25 24 24 25 26 26 26 26 25 24 23 22 19 18 17 16 15 15 14 14 15 15 15 16 16 17 17 17 18 19 19 20
29 29 30 30 31 31 31 31 31 30 29 28 25 24 24 26 27 27 27 27 26 25 23 21 19 19 18 18 17 17 17 17 17 17 17 17 18 18 18 19 20 20 20
32 33 33 34 34 34 34 34 34 33 32 31 28 26 25 26 27 27 27 28 28 27 25 23 22 21 21 20 19 19 20 20 20 19 19 18 18 18 19 20 20 20 21
35 35 35 36 36 37 37 38 37 36 36 34 31 28 27 26 26 27 28 28 28 28 27 25 24 23 22 21 21 21 21 22 22 21 20 19 19 19 19 20 20 20 21
36 35 35 36 38 39 40 41 41 40 39 37 34 31 28 27 27 27 27 27 28 28 27 26 26 25 24 24 23 23 23 24 23 23 21 20 19 19 19 19 20 21 21
37 37 37 38 40 41 42 42 43 42 41 39 37 34 30 28 28 28 27 27 27 27 27 27 27 26 26 25 25 25 25 25 24 23 22 21 20 19 18 19 19 20 20
39 39 40 41 42 42 43 43 44 44 42 40 38 36 33 31 30 29 29 29 29 28 29 28 28 28 28 27 26 26 26 25 24 23 22 21 20 19 18 19 19 19 20
39 41 42 42 42 43 43 44 44 44 42 40 39 36 34 32 31 30 30 31 30 30 30 30 30 30 29 28 28 26 25 24 23 22 21 20 19 19 19 19 19 20 20
41 42 44 44 43 43 43 42 42 42 41 39 38 36 35 33 32 31 30 31 32 32 32 32 31 31 31 29 28 26 25 23 23 21 20 20 19 19 19 19 20 20 21
43 44 45 45 44 43 42 40 40 39 38 37 36 35 34 34 33 32 32 33 34 33 33 33 31 31 31 30 28 26 25 23 22 21 21 20 19 19 20 20 20 20 21
45 45 45 44 43 41 39 37 36 36 35 35 35 34 34 34 34 34 34 33 33 34 34 33 30 28 28 27 27 26 24 23 22 21 21 20 19 19 19 20 20 20 20
46 45 43 41 39 36 34 33 32 32 32 32 32 32 33 34 34 34 34 34 33 32 31 31 29 26 26 25 25 25 23 22 21 21 20 20 19 19 18 19 19 19 20
43 41 38 35 33 32 30 29 29 28 28 29 29 29 30 33 35 34 33 33 32 31 29 29 27 25 25 24 24 23 23 22 21 21 20 19 19 18 17 18 19 19 19
38 36 34 33 31 30 28 27 27 26 26 25 25 26 27 28 30 31 32 33 32 29 27 26 24 22 22 22 22 22 22 22 21 20 20 19 18 18 16 16 16 17 18
35 34 33 32 31 30 29 27 26 26 25 24 23 23 23 23 24 26 26 26 26 25 24 23 22 21 21 20 21 21 21 21 20 20 20 19 18 16 15 14 14 15 16
34 34 33 32 32 31 30 29 28 27 26 25 24 23 23 22 21 22 23 23 23 22 21 20 21 20 20 20 20 20 20 20 20 20 20 18 17 16 14 13 13 13 14
33 33 33 32 32 32 32 31 31 30 29 28 27 26 25 24 23 22 22 22 22 21 21 21 22 21 21 21 21 20 20 20 21 21 20 20 19 16 14 13 13 15 16
31 31 32 32 32 32 32 32 32 32 33 32 31 30 30 29 28 27 26 25 25 24 24 24 24 24 23 23 23 23 22 22 21 22 22 21 20 18 17 15 16 17 19
30 31 32 32 33 33 33 33 33 33 34 34 34 34 34 33 33 32 31 30 29 28 27 27 27 26 25 25 25 24 24 24 24 23 24 23 21 20 19 19 19 20 22
30 30 31 31 31 31 32 32 33 33 34 34 34 34 34 34 35 35 35 34 34 33 32 31 30 29 28 27 27 26 26 26 27 26 26 25 24 24 23 22 23 23 25
27 28 28 29 30 30 31 31 31 32 32 33 33 34 34 35 35 36 36 36 36 36 35 34 33 32 31 31 30 29 28 29 29 28 28 28 27 26 25 25 26 27 28
25 25 26 27 28 28 29 29 30 30 30 30 31 32 33 33 34 34 35 36 37 37 36 36 36 35 34 34 34 34 33 32 32 32 33 32 31 30 28 28 27 28 29
22 23 24 24 25 26 27 27 27 26 27 28 28 29 30 31 31 32 33 35 36 37 37 37 37 37 37 37 37 38 38 38 38 38 37 36 34 33 31 30 29 28 29
Wind_Direction
308 314 320 325 330 333 333 328 325 314 299 290 289 288 292 293 295 294 291 289 288 289 291 292 292 292 296 298 297 295 293 291 289 288 286 282 276 269 262 256 254 253 250
300 303 306 314 321 326 329 331 330 322 311 297 291 286 285 287 289 288 285 283 283 284 286 287 288 289 292 295 296 295 292 290 288 288 286 283 278 273 266 261 257 255 252
300 303 307 313 318 321 324 326 328 327 322 309 295 287 281 280 283 281 279 279 281 282 282 282 284 286 290 293 295 295 294 291 289 287 286 284 279 275 270 264 261 258 255
303 306 309 311 314 317 318 320 322 319 320 316 305 290 281 279 279 277 275 275 277 278 278 277 278 281 285 289 293 297 298 296 293 289 285 283 279 274 270 266 262 261 259
302 305 307 308 310 312 314 314 316 316 316 315 309 299 285 279 277 276 274 273 272 272 272 272 273 277 280 284 289 294 297 298 297 293 287 283 279 274 268 265 262 261 259
299 300 302 303 305 307 309 309 311 311 311 312 308 302 293 282 276 275 274 273 270 267 267 267 268 271 275 279 284 289 293 296 296 295 290 284 279 275 269 264 262 260 258
296 297 298 299 300 302 303 304 305 306 306 305 304 300 294 287 278 275 273 272 268 264 263 264 266 269 273 277 280 284 289 293 294 294 290 285 280 275 269 264 261 260 259
293 293 293 294 296 297 299 300 301 301 300 300 298 295 289 285 280 276 273 269 266 262 259 259 263 267 270 273 276 281 286 289 292 293 290 285 281 275 270 262 260 258 259
290 290 292 293 294 295 296 296 297 296 296 295 294 290 285 279 275 275 272 269 265 261 258 257 260 264 267 271 275 279 283 287 289 290 288 285 280 274 269 261 258 257 258
289 290 291 292 293 293 293 293 293 293 292 291 289 286 282 277 270 268 268 268 264 259 256 256 258 260 265 269 274 279 282 286 287 287 285 282 277 272 267 260 258 257 258
289 291 292 293 293 292 291 291 290 289 288 287 284 282 277 273 269 265 263 264 263 259 254 254 256 259 263 267 273 278 281 283 283 283 281 279 275 269 265 260 258 257 258
289 290 292 292 292 291 290 289 288 286 285 283 280 277 275 271 269 266 264 263 261 258 255 253 256 257 260 265 271 275 277 278 279 279 278 276 272 267 263 260 258 257 259
288 289 291 291 291 290 289 287 286 284 282 281 278 275 272 269 268 267 267 264 260 257 255 253 253 255 257 262 266 270 273 276 276 276 275 273 270 267 262 260 258 258 258
288 289 290 290 290 289 288 287 285 283 283 281 277 274 272 268 269 268 267 266 263 258 256 253 251 251 253 257 262 266 271 274 273 272 271 269 267 266 263 259 258 258 257
287 288 289 289 289 289 287 286 285 285 284 282 280 276 273 271 269 270 267 266 262 259 257 253 250 249 249 254 260 264 269 271 270 269 267 265 264 264 263 260 257 257 255
285 287 288 289 289 288 287 285 286 287 287 286 284 281 276 274 270 267 266 264 261 260 257 254 252 251 251 253 257 261 265 267 267 266 264 262 261 262 262 260 257 256 256
283 285 287 288 287 287 286 285 286 287 288 290 289 286 281 276 271 265 260 259 257 256 253 252 251 250 250 253 255 258 261 262 264 264 263 263 263 262 262 261 259 257 255
281 283 285 285 284 284 283 283 285 285 286 288 288 287 286 282 276 271 266 262 257 254 252 251 250 249 250 254 256 257 258 260 262 262 263 263 264 263 261 262 261 260 256
279 281 282 282 282 282 281 280 280 281 282 283 284 285 283 282 280 276 269 265 261 255 252 253 254 253 254 256 257 256 256 258 261 260 260 261 262 263 262 262 264 263 258
278 279 280 280 281 281 280 279 278 278 279 279 279 279 278 277 276 274 271 268 265 263 261 260 259 259 258 258 259 257 257 258 259 258 259 259 261 262 263 268 268 264 259
277 278 279 279 280 281 281 280 279 278 278 277 277 276 275 273 273 272 271 269 267 265 264 263 261 260 260 258 257 257 257 257 257 257 257 258 259 259 262 267 268 262 255
276 278 279 280 281 281 282 281 280 279 278 277 276 275 273 272 270 269 269 267 266 264 263 262 261 259 258 257 257 256 255 255 255 255 255 255 255 256 258 261 264 263 255
277 278 280 281 281 282 282 281 280 279 279 277 276 274 272 271 269 268 267 266 265 264 262 261 259 257 255 254 253 252 251 252 252 251 253 254 253 255 257 257 259 262 257
279 281 282 284 284 285 284 283 282 281 279 278 276 274 272 270 267 266 264 263 262 261 259 257 255 253 251 250 248 247 248 248 246 246 249 251 252 254 255 255 257 256 255
283 285 286 287 288 288 288 286 285 284 282 280 278 276 275 272 269 266 264 262 260 258 256 254 251 249 247 245 243 242 241 242 244 246 248 250 252 253 254 257 256 257 255
287 290 291 292 292 291 291 290 289 287 285 283 282 280 278 276 273 271 268 265 262 259 256 253 250 248 245 243 241 240 239 240 242 244 246 248 250 253 254 255 255 256 255